| time (UTC) | temp F | wind direction | speed MPH | gust MPH | rain 1hr in | rain 24hr in | rain mn in | humidity % | barometer mb |
| 20260507124554 | 51 | 318 | 4.0 | 10.0 | 0.00 | 0.93 | 0.20 | 85 | 1005.2 |
| 20260507123052 | 51 | 314 | 5.0 | 12.0 | 0.00 | 0.93 | 0.20 | 90 | 1004.8 |
| 20260507121603 | 49 | 312 | 7.0 | 10.0 | 0.00 | 0.93 | 0.20 | 91 | 1004.6 |
| 20260507120056 | 49 | 296 | 5.0 | 9.0 | 0.00 | 0.93 | 0.20 | 92 | 1004.8 |
| 20260507114627 | 48 | 274 | 3.0 | 7.0 | 0.00 | 0.93 | 0.20 | 92 | 1005.8 |
| 20260507113045 | 47 | 278 | 3.0 | 6.0 | 0.00 | 0.93 | 0.20 | 93 | 1005.5 |
| 20260507111547 | 47 | 273 | 1.0 | 6.0 | 0.00 | 0.93 | 0.20 | 92 | 1005.6 |
| 20260507110043 | 46 | 290 | 3.0 | 6.0 | 0.00 | 0.93 | 0.20 | 93 | 1005.3 |
| 20260507104542 | 46 | 282 | 4.0 | 9.0 | 0.00 | 0.93 | 0.20 | 93 | 1005.6 |
| 20260507103040 | 46 | 318 | 4.0 | 11.0 | 0.00 | 0.93 | 0.20 | 93 | 1004.7 |
| 20260507101542 | 46 | 309 | 7.0 | 11.0 | 0.00 | 0.93 | 0.20 | 94 | 1004.6 |
| 20260507100036 | 46 | 326 | 4.0 | 11.0 | 0.00 | 0.93 | 0.20 | 94 | 1004.2 |
| 20260507094534 | 46 | 316 | 7.0 | 14.0 | 0.00 | 0.93 | 0.20 | 94 | 1004.4 |
| 20260507093033 | 47 | 306 | 7.0 | 12.0 | 0.00 | 0.93 | 0.20 | 94 | 1004.5 |
| 20260507091540 | 47 | 311 | 6.0 | 13.0 | 0.00 | 0.93 | 0.20 | 94 | 1004.4 |
| 20260507090036 | 47 | 306 | 6.0 | 17.0 | 0.00 | 0.93 | 0.20 | 94 | 1004.6 |
| 20260507084528 | 48 | 337 | 8.0 | 14.0 | 0.00 | 0.93 | 0.20 | 95 | 1004.3 |
| 20260507083031 | 48 | 299 | 7.0 | 12.0 | 0.00 | 0.93 | 0.20 | 95 | 1003.8 |
| 20260507081521 | 48 | 316 | 7.0 | 12.0 | 0.00 | 0.93 | 0.20 | 95 | 1003.8 |
| 20260507080023 | 48 | 307 | 6.0 | 13.0 | 0.00 | 0.93 | 0.20 | 95 | 1003.9 |
| 20260507074519 | 48 | 298 | 6.0 | 10.0 | 0.01 | 0.93 | 0.20 | 95 | 1003.7 |
| 20260507073017 | 48 | 298 | 8.0 | 13.0 | 0.01 | 0.93 | 0.20 | 95 | 1003.5 |
| 20260507071515 | 49 | 311 | 6.0 | 16.0 | 0.01 | 0.93 | 0.20 | 95 | 1003.5 |
| 20260507070014 | 49 | 324 | 8.0 | 14.0 | 0.02 | 0.93 | 0.20 | 95 | 1003.0 |
| 20260507064511 | 50 | 1 | 8.0 | 13.0 | 0.09 | 0.92 | 0.19 | 95 | 1003.2 |
| 20260507063010 | 50 | 337 | 7.0 | 11.0 | 0.17 | 0.92 | 0.19 | 95 | 1003.3 |
| 20260507061509 | 50 | 263 | 5.0 | 12.0 | 0.19 | 0.92 | 0.19 | 95 | 1003.4 |
| 20260507060008 | 50 | 245 | 7.0 | 10.0 | 0.18 | 0.91 | 0.18 | 95 | 1002.9 |
| 20260507054516 | 50 | 252 | 8.0 | 20.0 | 0.08 | 0.81 | 0.08 | 94 | 1003.4 |
| 20260507053005 | 50 | 194 | 7.0 | 16.0 | 0.02 | 0.75 | 0.02 | 94 | 1003.1 |
| 20260507051504 | 50 | 229 | 6.0 | 12.0 | 0.00 | 0.73 | 0.00 | 95 | 1003.4 |
| 20260507050100 | 50 | 297 | 4.0 | 12.0 | 0.00 | 0.73 | 0.00 | 94 | 1003.6 |
| 20260507044559 | 50 | 185 | 6.0 | 13.0 | 0.00 | 0.73 | 0.73 | 94 | 1003.1 |
| 20260507043058 | 50 | 208 | 7.0 | 14.0 | 0.00 | 0.73 | 0.73 | 94 | 1003.3 |
| 20260507041559 | 50 | 186 | 7.0 | 18.0 | 0.00 | 0.73 | 0.73 | 94 | 1003.4 |
| 20260507040057 | 50 | 212 | 8.0 | 19.0 | 0.00 | 0.73 | 0.73 | 94 | 1003.6 |
| 20260507034556 | 50 | 199 | 9.0 | 24.0 | 0.00 | 0.73 | 0.73 | 94 | 1003.7 |
| 20260507033054 | 50 | 207 | 9.0 | 23.0 | 0.03 | 0.73 | 0.73 | 94 | 1003.7 |
| 20260507031549 | 50 | 129 | 8.0 | 24.0 | 0.10 | 0.73 | 0.73 | 94 | 1003.8 |
| 20260507030047 | 51 | 185 | 17.0 | 31.0 | 0.13 | 0.73 | 0.73 | 94 | 1004.0 |
| 20260507024548 | 52 | 197 | 11.0 | 21.0 | 0.16 | 0.72 | 0.72 | 94 | 1004.2 |
| 20260507023049 | 51 | 176 | 8.0 | 19.0 | 0.21 | 0.70 | 0.70 | 94 | 1004.4 |
| 20260507021545 | 51 | 189 | 11.0 | 22.0 | 0.20 | 0.63 | 0.63 | 93 | 1004.6 |
| 20260507020058 | 51 | 176 | 13.0 | 25.0 | 0.20 | 0.59 | 0.59 | 93 | 1004.7 |
| 20260507014537 | 52 | 152 | 10.0 | 20.0 | 0.19 | 0.55 | 0.55 | 94 | 1005.0 |
| 20260507013047 | 52 | 152 | 12.0 | 23.0 | 0.15 | 0.49 | 0.49 | 93 | 1005.4 |
| 20260507011533 | 52 | 174 | 12.0 | 22.0 | 0.14 | 0.42 | 0.42 | 93 | 1005.8 |
| 20260507010034 | 52 | 160 | 7.0 | 18.0 | 0.19 | 0.39 | 0.39 | 93 | 1005.9 |
| 20260507004527 | 52 | 180 | 8.0 | 18.0 | 0.19 | 0.36 | 0.36 | 93 | 1006.2 |
| 20260507003040 | 52 | 158 | 8.0 | 18.0 | 0.23 | 0.34 | 0.34 | 93 | 1006.4 |
| 20260507001524 | 52 | 179 | 7.0 | 21.0 | 0.19 | 0.27 | 0.27 | 92 | 1006.5 |
| 20260507000023 | 53 | 155 | 8.0 | 19.0 | 0.12 | 0.19 | 0.19 | 92 | 1006.7 |
| 20260506234522 | 53 | 208 | 10.0 | 25.0 | 0.10 | 0.16 | 0.16 | 92 | 1006.9 |
| 20260506233022 | 53 | 191 | 12.0 | 24.0 | 0.06 | 0.11 | 0.11 | 92 | 1006.8 |
| 20260506231520 | 52 | 201 | 9.0 | 16.0 | 0.04 | 0.08 | 0.08 | 92 | 1006.9 |
| 20260506230020 | 52 | 196 | 8.0 | 18.0 | 0.04 | 0.07 | 0.07 | 92 | 1007.0 |
| 20260506224518 | 52 | 186 | 8.0 | 23.0 | 0.05 | 0.06 | 0.06 | 92 | 1006.9 |
| 20260506223016 | 52 | 179 | 7.0 | 17.0 | 0.04 | 0.05 | 0.05 | 92 | 1007.3 |
| 20260506221516 | 52 | 164 | 11.0 | 29.0 | 0.04 | 0.04 | 0.04 | 92 | 1007.4 |
| 20260506220013 | 51 | 169 | 8.0 | 23.0 | 0.02 | 0.02 | 0.02 | 91 | 1007.9 |
| 20260506214514 | 52 | 189 | 9.0 | 26.0 | 0.01 | 0.01 | 0.01 | 91 | 1008.2 |
| 20260506213009 | 51 | 179 | 10.0 | 22.0 | 0.01 | 0.01 | 0.01 | 91 | 1007.9 |
| 20260506211509 | 52 | 200 | 9.0 | 22.0 | 0.00 | 0.00 | 0.00 | 90 | 1008.2 |
| 20260506210007 | 52 | 181 | 10.0 | 26.0 | 0.00 | 0.00 | 0.00 | 90 | 1008.3 |
| 20260506204505 | 53 | 220 | 14.0 | 27.0 | 0.00 | 0.00 | 0.00 | 89 | 1008.4 |
| 20260506203004 | 54 | 245 | 7.0 | 18.0 | 0.00 | 0.00 | 0.00 | 88 | 1008.4 |
| 20260506201504 | 55 | 172 | 10.0 | 25.0 | 0.00 | 0.00 | 0.00 | 88 | 1007.7 |
| 20260506200003 | 55 | 198 | 10.0 | 22.0 | 0.00 | 0.00 | 0.00 | 88 | 1008.0 |
| 20260506194502 | 54 | 197 | 14.0 | 28.0 | 0.00 | 0.00 | 0.00 | 88 | 1007.8 |
| 20260506193059 | 54 | 176 | 10.0 | 24.0 | 0.00 | 0.00 | 0.00 | 88 | 1008.1 |
| 20260506191558 | 54 | 208 | 10.0 | 25.0 | 0.00 | 0.00 | 0.00 | 88 | 1008.3 |
| 20260506190101 | 54 | 170 | 8.0 | 21.0 | 0.00 | 0.00 | 0.00 | 88 | 1008.5 |
| 20260506184558 | 52 | 174 | 10.0 | 21.0 | 0.00 | 0.00 | 0.00 | 89 | 1008.5 |
| 20260506183103 | 52 | 210 | 13.0 | 22.0 | 0.00 | 0.00 | 0.00 | 89 | 1008.5 |
| 20260506181618 | 52 | 193 | 11.0 | 22.0 | 0.00 | 0.00 | 0.00 | 89 | 1008.8 |
| 20260506180047 | 52 | 213 | 11.0 | 22.0 | 0.00 | 0.00 | 0.00 | 89 | 1009.0 |
| 20260506174545 | 52 | 172 | 9.0 | 18.0 | 0.00 | 0.00 | 0.00 | 89 | 1009.2 |
| 20260506173055 | 52 | 191 | 8.0 | 21.0 | 0.00 | 0.00 | 0.00 | 89 | 1009.3 |
| 20260506171543 | 52 | 191 | 11.0 | 22.0 | 0.00 | 0.00 | 0.00 | 89 | 1009.6 |
| 20260506170042 | 53 | 201 | 12.0 | 25.0 | 0.00 | 0.00 | 0.00 | 88 | 1009.7 |
| 20260506164543 | 54 | 162 | 10.0 | 25.0 | 0.00 | 0.00 | 0.00 | 87 | 1009.8 |
| 20260506163042 | 54 | 211 | 8.0 | 19.0 | 0.00 | 0.00 | 0.00 | 88 | 1010.3 |
| 20260506161539 | 53 | 185 | 12.0 | 22.0 | 0.00 | 0.00 | 0.00 | 88 | 1010.4 |
| 20260506160039 | 54 | 191 | 10.0 | 22.0 | 0.00 | 0.00 | 0.00 | 88 | 1010.3 |
| 20260506154538 | 55 | 182 | 15.0 | 27.0 | 0.00 | 0.00 | 0.00 | 88 | 1010.2 |
| 20260506153055 | 55 | 176 | 12.0 | 26.0 | 0.00 | 0.00 | 0.00 | 88 | 1009.9 |
| 20260506151542 | 55 | 203 | 10.0 | 21.0 | 0.00 | 0.00 | 0.00 | 88 | 1010.1 |
| 20260506150035 | 54 | 197 | 11.0 | 19.0 | 0.00 | 0.00 | 0.00 | 88 | 1010.5 |
| 20260506144532 | 53 | 180 | 8.0 | 19.0 | 0.00 | 0.00 | 0.00 | 90 | 1010.7 |
| 20260506143033 | 52 | 171 | 6.0 | 16.0 | 0.00 | 0.00 | 0.00 | 90 | 1010.9 |
| 20260506141532 | 53 | 172 | 7.0 | 16.0 | 0.00 | 0.00 | 0.00 | 90 | 1010.7 |
| 20260506140031 | 52 | 167 | 7.0 | 16.0 | 0.00 | 0.00 | 0.00 | 90 | 1010.7 |
| 20260506134532 | 53 | 217 | 6.0 | 17.0 | 0.00 | 0.00 | 0.00 | 90 | 1010.4 |
| 20260506133031 | 52 | 167 | 4.0 | 11.0 | 0.00 | 0.00 | 0.00 | 90 | 1010.3 |
| 20260506131537 | 52 | 211 | 5.0 | 12.0 | 0.00 | 0.00 | 0.00 | 90 | 1010.3 |
| 20260506130028 | 53 | 166 | 7.0 | 13.0 | 0.00 | 0.00 | 0.00 | 90 | 1010.3 |